TimeEDT,TemperatureF,Dew PointF,Humidity,Sea Level PressureIn,VisibilityMPH,Wind Direction,Wind SpeedMPH,Gust SpeedMPH,PrecipitationIn,Events,Conditions,WindDirDegrees,DateUTC
12:15 AM,65.8,65.7,99,29.65,10.0,WSW,5.8,-,N/A,,Clear,250,2013-06-28 04:15:00
12:34 AM,65.8,65.7,99,29.65,10.0,West,5.8,-,N/A,,Clear,280,2013-06-28 04:34:00
12:55 AM,65.5,65.3,99,29.66,10.0,NNE,3.5,-,N/A,,Clear,20,2013-06-28 04:55:00
1:15 AM,65.7,65.5,99,29.66,10.0,NE,4.6,-,N/A,,Mostly Cloudy,40,2013-06-28 05:15:00
1:34 AM,65.5,65.5,100,29.66,10.0,NNE,3.5,-,N/A,,Scattered Clouds,20,2013-06-28 05:34:00
1:55 AM,65.7,65.7,100,29.65,7.0,NE,3.5,-,N/A,,Overcast,50,2013-06-28 05:55:00
2:34 AM,65.3,65.3,100,29.65,5.0,Calm,Calm,-,N/A,,Scattered Clouds,0,2013-06-28 06:34:00
2:55 AM,64.9,64.9,100,29.65,4.0,Calm,Calm,-,N/A,,Scattered Clouds,0,2013-06-28 06:55:00
3:15 AM,64.8,64.8,100,29.65,1.5,Calm,Calm,-,N/A,,Mostly Cloudy,0,2013-06-28 07:15:00
3:34 AM,65.1,65.1,100,29.65,2.0,Calm,Calm,-,N/A,,Overcast,0,2013-06-28 07:34:00
3:55 AM,65.3,65.3,100,29.65,4.0,Calm,Calm,-,N/A,,Overcast,0,2013-06-28 07:55:00
4:15 AM,65.3,65.3,100,29.65,4.0,Calm,Calm,-,N/A,,Overcast,0,2013-06-28 08:15:00
4:34 AM,65.3,65.3,100,29.64,3.0,WSW,3.5,-,N/A,,Overcast,240,2013-06-28 08:34:00
4:55 AM,64.4,64.4,100,29.64,2.5,Calm,Calm,-,N/A,,Overcast,0,2013-06-28 08:55:00
5:15 AM,64.2,64.2,100,29.64,1.0,WSW,3.5,-,N/A,,Overcast,250,2013-06-28 09:15:00
5:35 AM,64.6,64.6,100,29.63,0.2,Calm,Calm,-,N/A,Fog,Fog,0,2013-06-28 09:35:00
5:55 AM,64.6,64.6,100,29.63,0.2,West,3.5,-,N/A,Fog,Fog,270,2013-06-28 09:55:00
6:14 AM,64.4,64.4,100,29.63,0.2,West,5.8,-,N/A,Fog,Fog,260,2013-06-28 10:14:00
6:35 AM,64.6,64.6,100,29.63,0.2,WNW,4.6,-,N/A,Fog,Fog,300,2013-06-28 10:35:00
6:55 AM,64.8,64.8,100,29.63,0.2,NW,3.5,-,N/A,Fog,Fog,310,2013-06-28 10:55:00
7:14 AM,64.8,64.8,100,29.63,0.5,West,5.8,-,N/A,Fog,Fog,280,2013-06-28 11:14:00
7:35 AM,65.3,65.3,100,29.63,2.0,NNW,3.5,-,N/A,,Overcast,330,2013-06-28 11:35:00
7:55 AM,65.3,65.3,100,29.63,3.0,Calm,Calm,-,N/A,,Mostly Cloudy,0,2013-06-28 11:55:00
8:14 AM,65.8,65.8,100,29.62,4.0,West,3.5,-,N/A,,Mostly Cloudy,280,2013-06-28 12:14:00
8:35 AM,67.1,67.1,100,29.62,7.0,Calm,Calm,-,N/A,,Scattered Clouds,0,2013-06-28 12:35:00
8:55 AM,67.5,66.7,98,29.61,10.0,WSW,3.5,-,N/A,,Scattered Clouds,250,2013-06-28 12:55:00
9:14 AM,67.6,66.9,98,29.61,10.0,WSW,5.8,-,N/A,,Mostly Cloudy,250,2013-06-28 13:14:00
9:35 AM,69.8,68.2,95,29.60,10.0,West,4.6,-,N/A,,Scattered Clouds,280,2013-06-28 13:35:00
9:55 AM,71.4,69.4,93,29.61,10.0,West,5.8,-,N/A,,Scattered Clouds,280,2013-06-28 13:55:00
10:14 AM,71.6,67.8,88,29.60,10.0,NW,8.1,-,N/A,,Mostly Cloudy,310,2013-06-28 14:14:00
10:35 AM,71.8,67.3,86,29.60,10.0,WNW,8.1,-,N/A,,Overcast,300,2013-06-28 14:35:00
10:55 AM,71.1,65.8,84,29.60,10.0,WNW,5.8,-,N/A,,Mostly Cloudy,300,2013-06-28 14:55:00
11:15 AM,72.5,65.7,79,29.61,10.0,West,9.2,-,N/A,Rain,Light Rain,280,2013-06-28 15:15:00
11:35 AM,71.4,66.4,84,29.61,10.0,WNW,8.1,-,N/A,Rain,Light Rain,290,2013-06-28 15:35:00
11:54 AM,69.6,66.2,89,29.60,7.0,WNW,8.1,-,N/A,Rain,Light Rain,300,2013-06-28 15:54:00
12:15 PM,69.1,65.7,89,29.60,10.0,WNW,6.9,-,N/A,,Overcast,290,2013-06-28 16:15:00
12:35 PM,70.7,66.0,85,29.60,10.0,West,9.2,-,N/A,,Overcast,280,2013-06-28 16:35:00
12:55 PM,71.1,64.9,81,29.59,10.0,NW,6.9,-,N/A,Rain,Light Rain,310,2013-06-28 16:55:00
1:15 PM,72.5,65.5,79,29.60,10.0,West,8.1,-,N/A,,Mostly Cloudy,280,2013-06-28 17:15:00
1:34 PM,74.8,64.9,71,29.58,10.0,West,12.7,17.3,N/A,,Scattered Clouds,280,2013-06-28 17:34:00
1:55 PM,75.4,64.8,69,29.58,10.0,WNW,9.2,-,N/A,,Clear,290,2013-06-28 17:55:00
2:15 PM,75.4,62.8,65,29.58,10.0,WNW,8.1,-,N/A,,Clear,300,2013-06-28 18:15:00
2:34 PM,75.9,63.7,66,29.57,10.0,West,9.2,-,N/A,,Scattered Clouds,280,2013-06-28 18:34:00
2:55 PM,75.4,63.0,65,29.56,10.0,WNW,11.5,16.1,N/A,,Scattered Clouds,300,2013-06-28 18:55:00
3:15 PM,76.3,62.2,62,29.56,10.0,NW,9.2,-,N/A,,Clear,320,2013-06-28 19:15:00
3:34 PM,77.0,62.8,61,29.55,10.0,NW,11.5,16.1,N/A,,Scattered Clouds,320,2013-06-28 19:34:00
3:55 PM,77.4,62.8,61,29.55,10.0,NNW,9.2,16.1,N/A,,Mostly Cloudy,340,2013-06-28 19:55:00
4:15 PM,76.3,63.3,64,29.55,10.0,North,5.8,-,N/A,,Overcast,10,2013-06-28 20:15:00
4:34 PM,73.2,62.2,68,29.56,10.0,North,10.4,24.2,N/A,,Mostly Cloudy,10,2013-06-28 20:34:00
4:55 PM,67.3,62.6,85,29.55,10.0,NNE,5.8,-,N/A,Rain,Light Rain,30,2013-06-28 20:55:00
5:15 PM,67.1,62.4,85,29.55,10.0,NNE,4.6,-,N/A,,Clear,30,2013-06-28 21:15:00
5:34 PM,68.2,63.9,86,29.56,10.0,NE,4.6,-,N/A,,Clear,50,2013-06-28 21:34:00
5:55 PM,68.9,63.7,83,29.57,10.0,Calm,Calm,-,N/A,,Clear,0,2013-06-28 21:55:00
6:14 PM,69.8,62.1,76,29.58,10.0,NNW,3.5,-,N/A,,Mostly Cloudy,330,2013-06-28 22:14:00
6:35 PM,70.0,61.0,73,29.59,10.0,West,3.5,-,N/A,,Overcast,280,2013-06-28 22:35:00
6:55 PM,70.2,60.8,72,29.60,10.0,West,5.8,-,N/A,,Overcast,280,2013-06-28 22:55:00
7:14 PM,70.0,60.8,73,29.59,10.0,West,5.8,-,N/A,,Overcast,270,2013-06-28 23:14:00
7:35 PM,69.1,63.3,82,29.59,10.0,WSW,8.1,-,N/A,,Mostly Cloudy,250,2013-06-28 23:35:00
7:55 PM,68.4,64.6,88,29.59,10.0,WSW,4.6,-,N/A,,Mostly Cloudy,240,2013-06-28 23:55:00
8:15 PM,68.0,64.8,89,29.59,10.0,WSW,3.5,-,N/A,,Mostly Cloudy,250,2013-06-29 00:15:00
8:35 PM,68.2,64.8,89,29.59,10.0,WNW,3.5,-,N/A,,Clear,300,2013-06-29 00:35:00
8:54 PM,67.5,64.6,90,29.59,10.0,West,4.6,-,N/A,,Scattered Clouds,270,2013-06-29 00:54:00
9:15 PM,66.7,64.6,93,29.59,10.0,WNW,4.6,-,N/A,,Clear,290,2013-06-29 01:15:00
9:35 PM,66.2,64.4,94,29.59,10.0,NW,4.6,-,N/A,,Clear,310,2013-06-29 01:35:00
9:54 PM,66.2,63.7,92,29.60,10.0,WNW,3.5,-,N/A,,Scattered Clouds,300,2013-06-29 01:54:00
10:15 PM,65.3,63.1,93,29.60,10.0,West,4.6,-,N/A,,Scattered Clouds,280,2013-06-29 02:15:00
10:35 PM,65.3,63.5,94,29.60,10.0,Calm,Calm,-,N/A,,Mostly Cloudy,0,2013-06-29 02:35:00
10:54 PM,64.6,62.8,94,29.59,10.0,WNW,3.5,-,N/A,,Overcast,300,2013-06-29 02:54:00
11:15 PM,63.9,62.6,96,29.59,10.0,WNW,4.6,-,N/A,,Mostly Cloudy,290,2013-06-29 03:15:00
11:35 PM,64.2,63.0,96,29.59,10.0,WNW,3.5,-,N/A,,Overcast,300,2013-06-29 03:35:00
11:54 PM,64.6,63.5,96,29.59,10.0,NW,3.5,-,N/A,,Overcast,320,2013-06-29 03:54:00